ONEWEB-0034 (45454 NORAD) Tracking and Keplerian Element Data

This shows tracking and keplerian element data for the satellite.

Feedback or suggestion? Click here.




ElementValue
Catalog45454
NameONEWEB-0034
Epoch Orbit27912
Epoch Day354.13327087
Epoch Year2025
RAAN56.7095
Inclination87.8853
Eccentricity0.0001771
Argument of Perigee101.0498
Mean Anonmoly259.083
Mean Motion13.11416787
Decay Rate-4.74E-06
L11 45454U 20020AG 25354.13327087 -.00000474 00000+0 -13730-2 0 9998
L22 45454 87.8853 56.7095 0001771 101.0498 259.0830 13.11416787279121



Live tracking and technical data element details for ONEWEB-0034 (NORAD 45454). ONEWEB-0034 can be tracked NOW for your location showing map with azimuth and elevation plus other details from your city location.







IsCatalogInMostPopularTable: catalog: 45454, numindb: 338
Update: records affected: 1



GetName: 45454 ONEWEB-0034

Hit Count: updated at: Mon, 18 May 2026 09:09:27 GMT